Flag for Canada

Past Weather in Fort Nelson, British Columbia, Canada — Yesterday and Last 2 Weeks

Now
66 °F

Scattered clouds.


Feels Like: 66 °F
Forecast: 75 / 51 °F
Wind: 5 mph from West

Location: Fort Nelson

Current Time: Jul 13, 2020 at 9:21:34 pm

Latest Report: Jul 13, 2020 at 8:00 pm


Visibility: 30 mi

Pressure: 29.83 "Hg

Humidity: 68%

Dew Point: 55 °F

Location of Fort NelsonLocation

Past Weather in Fort Nelson — Graph

°F

Fort Nelson Temperature Yesterday

Maximum temperature yesterday: 72 °F (at 3:00 pm)
Minimum temperature yesterday: 48 °F (at 6:00 am)
Average temperature yesterday: 63 °F

High & Low Weather Summary for the Past Weeks

 TemperatureHumidityPressure
High75 °F (Jun 29, 3:00 pm)100% (Jun 30, 6:00 am)30.04 "Hg (Jun 30, 6:00 am)
Low48 °F (Jul 3, 7:00 am)33% (Jul 10, 1:00 pm)29.63 "Hg (Jul 2, 6:00 am)
Average61 °F75%29.84 "Hg
* Reported Jun 28 8:00 pm — Jul 13 8:00 pm, Fort Nelson. Weather by CustomWeather, © 2020

Note: Actual official high and low records may vary slightly from our data, if they occured in-between our weather recording intervals... More about our weather records

Fort Nelson Weather History for the Previous 24 Hours

Scroll right to see more
 ConditionsComfort  
Time TempWeatherWind HumidityBarometerVisibility
8:00 pm
Mon, Jul 13
66 °FScattered clouds.5 mph68%29.83 "Hg30 mi
7:00 pm63 °FBroken clouds.10 mph77%29.84 "Hg30 mi
6:34 pm61 °FPartly sunny.8 mph83%29.85 "Hg30 mi
5:00 pm73 °FPartly sunny.14 mph41%29.79 "Hg30 mi
4:00 pm73 °FPartly sunny.17 mph38%29.79 "Hg20 mi
3:22 pm72 °FPartly sunny.18 mph41%29.79 "Hg30 mi
3:00 pm73 °FSprinkles. Partly sunny.16 mph44%29.79 "Hg20 mi
2:23 pm70 °FSprinkles. Partly sunny.18 mph46%29.79 "Hg20 mi
2:00 pm72 °FPartly sunny.17 mph44%29.79 "Hg30 mi
1:00 pm68 °FPartly sunny.14 mph49%29.80 "Hg30 mi
12:00 pm70 °FPartly sunny.13 mph50%29.80 "Hg30 mi
11:00 am66 °FPartly sunny.12 mph56%29.81 "Hg30 mi
10:00 am64 °FPartly sunny.13 mph60%29.82 "Hg30 mi
9:00 am63 °FBroken clouds.7 mph68%29.82 "Hg30 mi
8:00 am61 °FPartly sunny.6 mph68%29.82 "Hg30 mi
7:00 am59 °FPartly sunny.6 mph72%29.83 "Hg30 mi
6:00 am57 °FPartly sunny.7 mph77%29.83 "Hg20 mi
5:39 am57 °FPartly sunny.8 mph77%29.83 "Hg20 mi
10:00 pm
Sun, Jul 12
57 °FPartly sunny.6 mph77%29.77 "Hg30 mi
9:00 pm64 °FPartly sunny.9 mph49%29.77 "Hg30 mi
Weather by CustomWeather, © 2020

See weather overview